www.pogodaiklimat.ru
Время
(UTC), дата
06 29.07
09 29.07
12 29.07
15 29.07
18 29.07
21 29.07
00 30.07
03 30.07
06 30.07
09 30.07
12 30.07
15 30.07
18 30.07
21 30.07
00 31.07
03 31.07
06 31.07
09 31.07
12 31.07
15 31.07
18 31.07
21 31.07
00 1.08
03 1.08
06 1.08
09 1.08
12 1.08
15 1.08
18 1.08
21 1.08
00 2.08
03 2.08
06 2.08
09 2.08
12 2.08
15 2.08
18 2.08
21 2.08
00 3.08
03 3.08
06 3.08
09 3.08
12 3.08
15 3.08
18 3.08
21 3.08
00 4.08
03 4.08
06 4.08
09 4.08
12 4.08
15 4.08
18 4.08
21 4.08
00 5.08
03 5.08
Ветер
(напр.,м/с)
Видим. Явления Облачность Т
(С)
Тd
(С)
f
(%)
Тe
(С)
Тes
(С)
Комфортность P
(гПа)
Po
(гПа)
Тmin
(С)
Tmax
(С)
R
(мм)
R24
(мм)
S
(см)
СЗ 1 50 км 10/6 1000 м
[Cb cap Ac trans]
+20.0 +14.4 70 +23 +25 комфорт 1010.3 998.6
СЗ 3 50 км {ливн. дождь} 10/4 1000 м
[Cb cap Ac trans]
+19.9 +15.0 73 +22 +23 комфорт 1010.9 999.2
СЗ 1 50 км {ливн. дождь} 9/0
[Ac trans Ci fib]
+20.0 +15.9 77 +24 +24 комфорт 1011.1 999.4 +21.2 0.0
СЗ 1 50 км 5/0
[Ci fib]
+16.2 +13.1 82 +17 +17 тепло 1012.2 1000.3
СЗ 2 50 км 3/0
[Ci fib]
+14.3 +12.2 87 +14 +14 тепло 1013.0 1001.0
С 2 50 км 3/0
[Ci fib]
+14.4 +11.3 82 +14 +15 тепло 1014.1 1002.0
С 2 50 км 1/0
[Ci fib]
+19.9 +7.3 44 +21 +28 комфорт 1014.8 1003.0 +13.4 0.0
СВ 3 50 км 1/0
[Ci fib]
+22.6 +4.6 31 +23 +32 комфорт 1014.3 1002.6
СВ 4 50 км 3/0
[Ci fib]
+24.2 +5.0 29 +24 +29 комфорт 1013.7 1002.1
СВ 3 50 км 3/0
[Ci fib]
+24.8 +3.4 25 +24 +26 комфорт 1013.2 1001.6
СЗ 1 50 км 4/0
[Ci fib]
+18.2 +9.7 58 +20 +20 тепло 1013.7 1001.8 +25.0
З 1 20 км 6/0
[Ac trans Ci fib]
+10.2 +7.6 84 +10 +10 холодно 1014.6 1002.4
штиль 0 50 км 10/0
[Ac trans Ci fib]
+8.0 +5.9 87 +7 +7 холодно 1014.7 1002.4
СЗ 1 50 км 10/0
[Ci fib]
+10.2 +7.8 85 +10 +11 холодно 1015.3 1003.0
СВ 1 50 км 10/0
[Cs]
+19.2 +10.1 56 +21 +28 комфорт 1015.0 1003.1 +6.9 0.0
СВ 3 50 км 10/0
[Cs]
+24.8 +5.7 29 +24 +32 комфорт 1013.6 1002.0
СВ 4 50 км 4/0
[Ci fib]
+26.2 +3.3 23 +25 +30 комфорт 1012.1 1000.6
СВ 3 50 км 3/0
[Ci fib]
+26.0 +2.5 22 +25 +26 комфорт 1011.2 999.7
С 1 50 км ясно +20.4 +5.7 38 +22 +22 комфорт 1011.8 1000.1 +26.5
штиль 0 10 км дым ясно +13.2 +8.2 72 +13 +13 прохладно 1012.5 1000.4
З 1 10 км дым ясно +9.0 +6.5 84 +8 +8 прохладно 1013.1 1000.9
С 1 4000 м дым 3/0
[Ci fib]
+10.3 +8.0 86 +10 +11 холодно 1013.5 1001.3
С 2 4000 м дым 3/0
[Ci fib]
+16.8 +11.1 69 +17 +23 по сезону 1013.4 1001.5 +7.5
СВ 3 4000 м дым 4/0
[Ci fib]
+24.6 +7.0 32 +25 +33 комфорт 1012.6 1001.0
С 2 10 км дым 10/3 1000 м
[Cu med, cong Ci fib]
+26.8 +7.2 29 +26 +31 жарко 1011.5 1000.0
СВ 3 10 км дым 8/0
[Ci fib]
+26.2 +6.6 29 +26 +27 жарко 1011.8 1000.3
С 1 4000 м дым 8/0
[Ci fib]
+20.9 +11.6 55 +24 +24 комфорт 1012.8 1001.1 +27.1
штиль 0 4000 м дым 4/0
[Ci fib]
+12.1 +9.4 84 +12 +12 прохладно 1014.0 1001.9
штиль 0 4000 м дым 4/0
[Ci fib]
+10.1 +7.3 83 +9 +9 прохладно 1014.9 1002.7
штиль 0 4000 м дым 8/0
[Ci fib]
+10.2 +7.9 86 +9 +11 холодно 1015.7 1003.5
ЮВ 1 4000 м дым 8/0
[Ci fib]
+18.4 +11.4 64 +20 +26 тепло 1016.1 1004.2 +8.3 0.0
Ю 3 4000 м дым 8/3 1000 м
[Cu hum Ci fib]
+23.7 +12.3 49 +26 +31 жарко 1015.3 1003.7
Ю 2 4000 м дым 10/3 1000 м
[Cu med, cong Ci fib]
+26.3 +9.3 34 +27 +31 жарко 1014.9 1003.3
Ю 3 4000 м дым 10/1 1000 м
[Cu hum Ci fib]
+25.5 +9.4 36 +26 +27 жарко 1014.7 1003.1
Ю 1 4000 м дым 10/0
[Ac trans Ci fib]
+18.7 +14.3 76 +21 +21 комфорт 1015.7 1003.8 +26.6
Ю 1 20 км 10/0
[Ci fib]
+17.4 +13.2 76 +18 +18 тепло 1016.0 1004.1
штиль 0 20 км 10/0
[Ci fib]
+12.0 +10.1 88 +11 +11 по сезону 1016.7 1004.5
Ю 1 20 км 10/3 1000 м
[Cu hum Ac trans Ci fib]
+11.3 +9.7 90 +11 +11 прохладно 1017.2 1005.0
ЮВ 1 10 км дым 10/0
[Ac trans Ci fib]
+19.5 +14.3 72 +22 +27 комфорт 1017.3 1005.5 +10.6
ЮВ 5 20 км дым 10/0
[Ac trans Ci fib]
+24.4 +17.7 66 +28 +32 душно 1016.6 1005.0
Ю 3 20 км дым 10/3 1000 м
[Cu hum Ci fib]
+27.4 +10.9 36 +28 +32 жарко 1015.3 1003.8
С 1 20 км дым 10/0
[Ac trans Ci fib]
+27.8 +5.0 23 +27 +28 жарко 1014.9 1003.4
З 1 20 км 10/0
[Ci fib]
+18.4 +11.6 65 +20 +20 тепло 1015.8 1003.9 +28.0
З 1 20 км 10/0
[Ci fib]
+12.0 +9.0 82 +12 +12 прохладно 1016.2 1004.1
штиль 0 20 км 10/0
[Ci fib]
+10.6 +8.5 87 +10 +10 по сезону 1016.7 1004.5
штиль 0 20 км 10/0
[Ac trans Ci fib]
+12.8 +10.4 85 +12 +13 прохладно 1017.1 1005.0
штиль 0 10 км дым 10/0
[Ac trans Ci fib]
+20.1 +13.1 64 +22 +27 комфорт 1017.4 1005.6 +9.8
ЮВ 1 20 км дым 10/0
[Ac trans Ci fib]
+25.2 +11.0 41 +26 +35 жарко 1016.9 1005.3
Ю 3 20 км дым 10/0
[Ac trans Ci fib]
+26.9 +8.8 32 +27 +31 жарко 1016.0 1004.5
ЮВ 1 20 км дым 10/0
[Ac trans Ci fib]
+26.0 +10.2 37 +27 +28 жарко 1015.4 1003.8
штиль 0 20 км дым 10/0
[Ac trans Ci fib]
+17.1 +14.0 82 +17 +17 по сезону 1016.2 1004.3 +27.1
штиль 0 20 км дым 10/0
[Ac trans Ci fib]
+12.6 +9.8 83 +12 +12 прохладно 1017.2 1005.1
штиль 0 20 км дым 10/0
[Ac trans Ci fib]
+10.0 +7.9 87 +9 +9 по сезону 1017.7 1005.4
штиль 0 20 км дым 10/0
[Ac trans Ci fib]
+12.2 +9.8 85 +12 +12 прохладно 1018.4 1006.2
штиль 0 20 км дым 10/0
[Ci fib]
+21.5 +13.6 61 +24 +31 комфорт 1018.2 1006.4 +9.1
В 2 4000 м дым 8/0
[Ci fib]
+26.0 +15.8 53 +29 +38 душно 1017.5 1005.9
Местоположение метеостанции Якутск (Якутия, Россия): широта 62.00 долгота 129.60 высота над уровнем моря 101 м.
В архиве по умолчанию представлена погода в Якутске за последнюю неделю. Архивные данные за месяц целиком и за предыдущие месяцы, начиная с января 2011 года, Вы можете получить, выбрав интересующий диапазон дат из раскрывающегося списка и нажав кнопку "Найти!".
*Определитесь, кто Вы:
Внимание! Время в таблицах - всемирное. Для получения местного времени необходимо прибавить поправку, которая равна 9 ч.
Смотрите также архив погоды в соседних городах и на ближайших метеорологических станциях:
Партнеры нашего сайта:
Купить стильные брендовые женские сумки
сумки известных брендов в интернет-магазине
marianna-ross.ru

     
Пояснения к столбцам:
  • Ветер - указаны скорость ветра в м/с - средняя за 10 мин, порывы в срок и между сроками (в фигурных скобках) и направление, откуда дует ветер: С - северный,
  • СВ - северо-восточный, В - восточный, ЮВ - юго-восточный, Ю - южный, ЮЗ - юго-западный, З - западный, СЗ - северо-западный.
  • Видимость - горизонтальная дальность видимости в метрах или километрах. При видимости от 1 до 10 км при отсутствии осадков обычно наблюдается дымка, при ухудшении видимости до 1 км и менее - туман. В сухую погоду видимость может ухудшаться дымом, пылью или мглою.
  • Явления - указаны атмосферные явления, наблюдавшиеся в срок или в последний час перед сроком; фигурными скобками обозначены явления, наблюдавшиеся между сроками (за 1-3 часа до срока); квадратными скобками обозначены град или гололедные отложения с указанием их диаметра в мм.
  • Облачность - указаны через наклонную черту общая и нижняя облачность в баллах и высота нижней границы облаков в метрах; квадратными скобками обозначены формы облаков: Ci - перистые, Cs - перисто-слоистые, Cc - перисто-кучевые, Ac - высококучевые, As - высокослоистые, Sc - слоисто-кучевые, Ns - слоисто-дождевые, Cu - кучевые, Cb - кучево-дождевые. Подробнее классификацию облаков см. в Атласе облаков (PDF).
  • T - Температура воздуха - температура, измеренная на высоте 2 м над землей.
  • Td - Температура точки росы - температура, при понижении до которой содержащийся в воздухе водяной пар достигнет насыщения.
  • f - Относительная влажность воздуха - влажноcть воздуха, измеренная на высоте 2 м над землей.
  • Te - Эффективная температура - температура, которую ощущает одетый по сезону человек в тени. Характеристика душности погоды. При расчете учитывается влияние влажности воздуха и скорости ветра на теплоощущения человека.
  • Tes - Эффективная температура на солнце - температура, которую ощущает человек, с поправкой на солнечный нагрев. Характеристика знойности погоды. Зависит от высоты солнца над горизонтом, облачности и скорости ветра. Ночью, в пасмурную погоду, а также при ветре 12 м/с и более поправка равна нулю.
  • P - Атмосферное давление - приведенное к уровню моря атмосферное давление.
  • Po - Атмосферное давление - измеренное на уровне метеостанции атмосферное давление.
  • Tmin - Минимальная температура - минимум температуры воздуха на высоте 2 м над землей.
  • Tmax - Максимальная температура - максимум температуры воздуха на высоте 2 м над землей.
  • R - Количество осадков - Количество выпавших осадков за период времени, мм. При наведении курсора мыши на число - период времени, за который выпало указанное количество осадков.
  • R24 - Количество осадков - Количество выпавших осадков за 24 часа, мм.
  • S - Снежный покров - Высота снежного покрова, см. При наведении курсора мыши на число - состояние снежного покрова и степень покрытия местности в баллах.